Location: Unspecified
(48.8656°N, 0.0000°E)
Time: 18:53:36
(UTC+00:00)

SR - Pass Details

Date: 27 June 2019
Orbit: 580 x 876 km, 66.7° (Epoch: 21 July)

Event Time Altitude Azimuth Distance (km) Brightness Sun altitude
Rises 10:59:52 0° 323° (NW) 3,013 ? 61.6°
Reaches altitude 10° 11:02:06 10° 321° (NW) 2,139 ? 61.8°
Maximum altitude 11:06:57 75° 237° (WSW) 760 ? 62.2°
Drops below altitude 10° 11:12:15 10° 153° (SSE) 2,323 ? 62.6°
Sets 11:14:45 0° 152° (SSE) 3,292 ? 62.7°
